Location: ??????
(55.2000°N, 38.3000°E)
Time: 01:02:15
(UTC+00:00)

SWARM A - Pass Details

Date: 15 November 2025
Orbit: 425 x 428 km, 87.3° (Epoch: 12 December)

Event Time Altitude Azimuth Distance (km) Brightness Sun altitude
Rises 02:55:24 0° 178° (S) 2,404 8.1 -17.4°
Reaches altitude 10° 02:57:25 10° 178° (S) 1,541 7.1 -17.1°
Maximum altitude 03:00:45 79° 91° (E) 450 4.3 -16.6°
Drops below altitude 10° 03:04:07 10° 5° (N) 1,552 7.0 -16.1°
Sets 03:06:10 0° 5° (N) 2,425 8.0 -15.9°
